CST,Max TemperatureF,Mean TemperatureF,Min TemperatureF,Max Dew PointF,MeanDew PointF,Min DewpointF,Max Humidity, Mean Humidity, Min Humidity, Max Sea Level PressureIn, Mean Sea Level PressureIn, Min Sea Level PressureIn, Max VisibilityMiles, Mean VisibilityMiles, Min VisibilityMiles, Max Wind SpeedMPH, Mean Wind SpeedMPH, Max Gust SpeedMPH,PrecipitationIn, CloudCover, Events, WindDirDegrees
2012-11-1,78,62,46,56,48,43,93,62,30,30.10,30.03,29.99,10,7,2,8,1,,0.00,0,,331
2012-11-2,83,66,49,64,57,46,93,72,51,30.08,30.04,29.99,10,8,0,13,3,,0.00,2,Fog,236
2012-11-3,85,70,54,65,57,52,100,69,37,30.15,30.09,30.04,10,9,0,13,3,,0.00,1,Fog,264
2012-11-4,70,62,53,63,59,54,97,84,70,30.14,30.09,30.06,10,7,1,9,2,12,0.03,3,Rain,301
2012-11-5,65,56,47,54,49,41,100,72,43,30.11,30.04,29.96,10,6,0,15,2,22,0.07,4,Fog-Rain-Thunderstorm,40
2012-11-6,60,51,42,49,46,39,96,78,60,30.08,30.03,29.97,10,10,6,15,5,18,0.00,6,,343
2012-11-7,67,53,38,45,37,34,92,61,29,30.18,30.08,30.00,10,10,9,21,5,25,0.00,0,,321
2012-11-8,66,50,33,43,37,31,96,65,34,30.29,30.23,30.18,10,10,10,9,1,,0.00,0,,39
2012-11-9,73,54,34,49,41,32,96,66,35,30.31,30.24,30.19,10,10,4,10,1,,0.00,0,,146
2012-11-10,78,60,41,54,46,39,100,72,43,30.30,30.24,30.19,10,6,0,17,5,23,0.00,3,Fog,140
2012-11-11,80,66,52,62,57,50,93,70,47,30.22,30.16,30.12,10,9,3,25,11,30,0.00,1,,143
2012-11-12,71,57,43,66,53,35,87,72,56,30.40,30.23,30.09,10,8,2,18,8,26,0.33,6,Rain-Thunderstorm,325
2012-11-13,60,48,36,35,30,25,85,56,26,30.45,30.38,30.30,10,10,10,18,6,22,0.00,0,,3
2012-11-14,63,50,37,38,34,31,85,58,30,30.35,30.29,30.24,10,10,10,13,4,18,0.00,0,,331
2012-11-15,66,50,33,45,40,31,96,70,43,30.31,30.26,30.20,10,10,8,10,2,,0.00,0,,359
2012-11-16,68,52,36,42,37,29,93,59,24,30.33,30.29,30.24,10,8,4,13,2,24,0.00,0,,50
2012-11-17,67,50,33,41,37,32,96,64,32,30.40,30.33,30.29,10,9,6,8,2,17,0.00,0,,13
2012-11-18,68,50,32,43,37,30,96,65,34,30.38,30.32,30.27,10,9,6,10,2,,0.00,0,,61
2012-11-19,71,54,36,49,42,34,93,66,38,30.31,30.25,30.19,10,10,7,10,1,30,0.00,0,,353
2012-11-20,71,57,42,48,44,39,93,63,33,30.24,30.18,30.13,10,9,7,10,2,17,0.00,2,,2
2012-11-21,77,60,42,50,44,39,96,64,31,30.22,30.18,30.14,10,10,8,9,2,23,0.00,0,,356
2012-11-22,75,57,39,50,45,37,96,66,35,30.27,30.21,30.17,10,9,7,9,1,10,0.00,0,,251
2012-11-23,76,59,42,55,48,39,93,70,46,30.27,30.23,30.17,10,10,6,17,5,23,0.00,4,,324
2012-11-24,59,46,33,39,32,26,92,60,28,30.34,30.25,30.20,10,10,10,12,5,17,0.00,0,,348
2012-11-25,65,47,28,37,31,24,92,58,24,30.26,30.17,30.11,10,10,10,9,1,15,0.00,0,,186
2012-11-26,70,54,38,62,50,35,100,88,76,30.17,30.12,30.08,10,7,0,16,3,20,0.05,6,Fog-Rain,154
2012-11-27,63,55,47,61,56,44,97,92,86,30.33,30.18,30.07,10,6,1,14,6,20,0.73,8,Rain-Thunderstorm,343
2012-11-28,62,49,35,43,37,32,93,64,35,30.46,30.39,30.33,10,9,5,12,4,,0.00,3,,11
2012-11-29,65,48,30,44,37,27,93,68,43,30.41,30.34,30.27,10,9,6,10,2,,0.00,0,,110
2012-11-30,72,54,36,53,42,34,93,69,44,30.33,30.27,30.21,10,7,1,9,1,21,0.00,3,,160